Keps
Threads by month
- ----- 2024 -----
- December
- November
- October
- September
- August
- July
- June
- May
- April
- March
- February
- January
- ----- 2023 -----
- December
- November
- October
- September
- August
- July
- June
- May
- April
- March
- February
- January
- ----- 2022 -----
- December
- November
- October
- September
- August
- July
- June
- May
- April
- March
- February
- January
- ----- 2021 -----
- December
- November
- October
- September
- August
- July
- June
- May
- April
- March
- February
- January
- ----- 2020 -----
- December
- November
- October
- September
- August
- July
- June
- May
- April
- March
- February
- January
- ----- 2019 -----
- December
- November
- October
- September
- August
- July
- June
- May
- April
- March
- February
- January
- ----- 2018 -----
- December
- November
- October
- September
- August
- July
- June
- May
- April
- March
- February
- January
- ----- 2017 -----
- December
- November
- October
- September
- August
- July
- June
- May
- April
- March
- February
- January
- ----- 2016 -----
- December
- November
- October
- September
- August
- July
- June
- May
- April
- March
- February
- January
- ----- 2015 -----
- December
- November
- October
- September
- August
- July
- June
- May
- April
- March
- February
- January
- ----- 2014 -----
- December
- November
- October
- September
- August
- July
- June
- May
- April
- March
- February
- January
- ----- 2013 -----
- December
- November
- October
- September
- August
- July
- June
- May
- April
- March
- February
- January
- ----- 2012 -----
- December
- November
- October
- September
- August
- July
- June
- May
- April
- March
- February
- January
- ----- 2011 -----
- December
- November
- October
- September
- August
- July
- June
- May
- April
- March
- February
- January
- ----- 2010 -----
- December
- November
- October
- September
- August
- July
- June
- May
- April
- March
- February
- January
- ----- 2009 -----
- December
- November
- October
- September
- August
- July
- June
- May
- April
- March
- February
- January
- ----- 2008 -----
- December
- November
- October
- September
- August
- July
- June
- May
- April
- March
- February
- January
- ----- 2007 -----
- December
- November
- October
- September
- August
- July
- June
- May
- April
- March
- February
- January
- ----- 2006 -----
- December
- November
- October
- September
April 2022
- 1 participants
- 7 discussions
SB KEPS @ AMSAT $ORB22118.N
2Line Orbital Elements 22118.AMSAT
HR AMSAT ORBITAL ELEMENTS FOR AMATEUR SATELLITES IN NASA FORMAT
FROM WA5QGD FORT WORTH,TX April 28, 2022
BID: ORB22118.N
DECODE 2-LINE ELSETS WITH THE FOLLOWING KEY:
1 AAAAAU 00 0 0 BBBBB.BBBBBBBB .CCCCCCCC 00000-0 00000-0 0 DDDZ
2 AAAAA EEE.EEEE FFF.FFFF GGGGGGG HHH.HHHH III.IIII JJ.JJJJJJJJKKKKKZ
KEY: A-CATALOGNUM B-EPOCHTIME C-DECAY D-ELSETNUM E-INCLINATION F-RAAN
G-ECCENTRICITY H-ARGPERIGEE I-MNANOM J-MNMOTION K-ORBITNUM Z-CHECKSUM
TO ALL RADIO AMATEURS BT
AO-07
1 07530U 74089B 22118.55538745 -.00000035 00000-0 68022-4 0 9990
2 07530 101.9016 98.2743 0012454 136.1603 335.7190 12.53654491171214
UO-11
1 14781U 84021B 22118.54310287 .00001302 00000-0 16395-3 0 9993
2 14781 97.6157 108.2618 0009772 120.4080 239.8101 14.83579285 32645
LO-19
1 20442U 90005G 22118.73776449 .00000184 00000-0 83875-4 0 9995
2 20442 98.7897 82.8522 0011012 319.3965 40.6397 14.33046834686049
HUBBLE
1 20580U 90037B 22118.48357440 .00003077 00000-0 17200-3 0 9993
2 20580 28.4691 139.8589 0002535 210.0236 270.8411 15.10349841558657
MET-2/21
1 22782U 93055A 22118.56057093 .00000017 00000-0 18257-5 0 9998
2 22782 82.5515 53.8320 0023325 125.4261 47.5386 13.83850907447109
AO-27
1 22825U 93061C 22118.56209678 .00000122 00000-0 65143-4 0 9993
2 22825 98.8919 148.5329 0008261 189.7073 170.3950 14.30161654491021
IO-26
1 22826U 93061D 22118.52738712 .00000145 00000-0 73609-4 0 9997
2 22826 98.8862 148.3802 0009021 176.9263 183.1976 14.30505746491278
FO-29
1 24278U 96046B 22118.52240347 .00000017 00000-0 51012-4 0 9990
2 24278 98.5214 149.0656 0351167 52.9783 310.2946 13.53113666268851
NOAA-15
1 25338U 98030A 22118.74678630 .00000240 00000-0 11844-3 0 9993
2 25338 98.6489 148.9211 0011565 84.2370 276.0128 14.26115093246184
GO-32
1 25397U 98043D 22118.46211857 .00000091 00000-0 59508-4 0 9999
2 25397 98.8138 68.8097 0000333 202.2809 157.8355 14.23746861236316
ISS
1 25544U 98067A 22118.74464671 .00016801 00000-0 30381-3 0 9997
2 25544 51.6435 221.4548 0006536 44.2504 57.4686 15.49789218337510
NO-44
1 26931U 01043C 22118.53857181 .00000163 00000-0 93787-4 0 9999
2 26931 67.0510 187.2349 0007937 270.6593 89.3599 14.30688818 74263
SO-50
1 27607U 02058C 22118.32187956 .00001597 00000-0 24104-3 0 9998
2 27607 64.5539 95.3003 0075500 304.3123 55.0848 14.76039545 40973
CO-55
1 27844U 03031E 22118.55436004 .00000351 00000-0 17726-3 0 9998
2 27844 98.6804 126.9918 0008741 243.4352 116.5931 14.22423154976771
CO-57
1 27848U 03031J 22118.22041263 .00000319 00000-0 16409-3 0 9996
2 27848 98.6851 127.1923 0008543 260.3026 99.7187 14.21983876976543
RS-22
1 27939U 03042A 22118.82211964 .00001153 00000-0 21316-3 0 9992
2 27939 98.1834 259.5788 0012893 10.9128 349.2366 14.67273019993760
NOAA-18
1 28654U 05018A 22118.77095810 .00000232 00000-0 14877-3 0 9997
2 28654 98.9514 189.2414 0015377 111.3385 248.9430 14.12719589873057
CO-58
1 28895U 05043F 22118.36233608 .00001490 00000-0 29147-3 0 9999
2 28895 98.0983 250.5381 0015467 301.0065 58.9618 14.64237037880081
Falconsat-3
1 30776U 07006E 22118.59101167 .00052321 00000-0 90662-3 0 9999
2 30776 35.4315 226.0758 0000320 348.4348 11.6375 15.49810567841838
CO-65
1 32785U 08021C 22118.44961020 .00003546 00000-0 37851-3 0 9991
2 32785 97.6529 90.9019 0013913 45.3389 314.8960 14.89369683759045
AAUSAT2
1 32788U 08021F 22118.51532910 .00008298 00000-0 72484-3 0 9994
2 32788 97.5318 105.6214 0009001 295.9005 64.1289 14.97006596760967
DO-64
1 32789U 08021G 22118.55587545 .00020226 00000-0 11627-2 0 9999
2 32789 97.3436 146.6934 0012655 132.9115 227.3180 15.12444622764389
CO-66
1 32791U 08021J 22118.49666684 .00005285 00000-0 52120-3 0 9999
2 32791 97.6080 96.4981 0012904 5.7311 354.4054 14.92353414759826
RS-30
1 32953U 08025A 22118.72094686 .00000021 00000-0 80971-4 0 9995
2 32953 82.5064 214.8478 0019177 12.7500 347.4066 12.43109206632158
PRISM
1 33493U 09002B 22118.50057418 .00009263 00000-0 76237-3 0 9995
2 33493 98.2282 102.2383 0012117 335.6179 24.4468 14.99291547721492
NOAA-19
1 33591U 09005A 22118.69570859 .00000172 00000-0 11825-3 0 9998
2 33591 99.1531 151.7751 0013292 331.4613 28.5829 14.12554986681426
SRMSAT
1 37841U 11058D 22118.53258387 .00000426 00000-0 89156-4 0 9998
2 37841 19.9707 196.6691 0011858 154.7377 235.2774 14.10743679544187
HRBE
1 37855U 11061F 22118.73106480 .00019356 00000-0 86580-3 0 9994
2 37855 101.7045 211.6036 0157820 211.2638 147.9118 15.10879704574192
RS-40
1 38735U 12041C 22118.41426812 -.00000004 00000-0 -98194-4 0 9997
2 38735 82.4725 296.7014 0018013 119.0768 241.2118 12.42584918442306
ZACUBE-1
1 39417U 13066B 22118.47962108 .00002598 00000-0 32371-3 0 9994
2 39417 97.6324 92.2534 0057165 207.0242 152.7993 14.82138208455729
Delfi-N3xt
1 39428U 13066N 22118.53210159 .00005001 00000-0 77489-3 0 9996
2 39428 97.8122 55.0550 0119773 77.5796 283.8783 14.68838400451209
GOMX-1
1 39430U 13066Q 22118.77106829 .00001129 00000-0 21027-3 0 9997
2 39430 97.8116 28.8064 0148798 201.0354 158.4688 14.60049179449045
LO-74
1 39440U 13066AA 22118.52414415 .00002921 00000-0 40310-3 0 9991
2 39440 97.7217 78.1990 0077470 294.0558 65.2560 14.76844164452917
AO-73
1 39444U 13066AE 22118.46456254 .00003223 00000-0 39037-3 0 9995
2 39444 97.6206 94.6389 0056377 195.4164 164.5335 14.83172282454113
SPROUT
1 39770U 14029E 22118.84163979 .00008214 00000-0 85106-3 0 9991
2 39770 97.9342 235.5142 0007606 247.4873 112.5575 14.90263949430277
DTUSAT-2
1 40030U 14033W 22118.54302597 .00003597 00000-0 38123-3 0 9991
2 40030 97.9357 51.1258 0010727 211.7508 148.3064 14.89712176426219
EO-80
1 40032U 14033Y 22118.37988829 .00003533 00000-0 37482-3 0 9999
2 40032 97.9360 50.9748 0010587 213.3508 146.7044 14.89682335426165
HODOYOSHI-1
1 40299U 14070B 22118.85972887 .00006443 00000-0 25006-3 0 9997
2 40299 97.2467 188.4573 0011110 318.8955 152.3864 15.26375884415491
FIREBIRD FU3
1 40377U 15003B 22118.55945865 .00025498 00000-0 79815-3 0 9992
2 40377 99.1079 332.4088 0104723 193.5582 166.2835 15.27831612400793
FIREBIRD FU4
1 40378U 15003C 22118.52257462 .00025438 00000-0 79428-3 0 9993
2 40378 99.1084 332.5629 0104673 193.3318 166.5147 15.27913621400791
GRIFEX
1 40379U 15003D 22118.76830274 .00018003 00000-0 65553-3 0 9992
2 40379 99.1170 319.3025 0118077 233.3508 125.6822 15.21885606400072
XW-2A
1 40903U 15049E 22118.83757260 .00024785 00000-0 42321-3 0 9998
2 40903 97.1864 177.3617 0008573 306.9150 182.0538 15.51265441371565
XW-2C
1 40906U 15049H 22118.85421398 .00007058 00000-0 34473-3 0 9996
2 40906 97.4942 122.6844 0014436 163.8844 280.9595 15.18478761365397
XW-2D
1 40907U 15049J 22118.83878565 .00007900 00000-0 37936-3 0 9990
2 40907 97.4932 122.6103 0013900 159.0418 326.3049 15.19038193365430
LILACSAT-2
1 40908U 15049K 22118.79240763 .00003899 00000-0 20916-3 0 9992
2 40908 97.5167 119.8812 0015133 181.9280 351.5937 15.15452819364962
XW-2E
1 40909U 15049L 22118.87121796 .00012342 00000-0 53433-3 0 9999
2 40909 97.4670 127.0687 0013744 140.9532 337.5952 15.22475113365864
XW-2F
1 40910U 15049M 22118.79214214 .00012115 00000-0 53240-3 0 9994
2 40910 97.4750 126.1127 0014981 142.9327 31.6885 15.21954210365622
XW-2B
1 40911U 15049N 22118.78114529 .00007962 00000-0 38349-3 0 9999
2 40911 97.4916 123.1701 0013852 160.7132 251.7560 15.18933591365316
DCBB
1 40912U 15049P 22118.81963226 .00014258 00000-0 57376-3 0 9997
2 40912 97.4399 130.4955 0015362 113.6634 11.8102 15.24888106366187
TW-1A
1 40928U 15051D 22118.90105619 .00044268 00000-0 64236-3 0 9998
2 40928 97.0457 142.1160 0008054 189.9429 291.3310 15.55668567370521
